Tracking 20093 objects as of 14-Dec-2019
HD Live streaming from Space Station
objects crossing your sky now

COSMOS 2251 DEB

Track COSMOS 2251 DEB now!
10-day predictions


NORAD ID: 33948
Int'l Code: 1993-036FD
Perigee: 769.6 km
Apogee: 806.6 km
Inclination: 74.0 °
Period: 100.5 minutes
Semi major axis: 7159 km
RCS: 0.032 m2 (small)
Launch date: June 16, 1993
Source: Commonwealth of Independent States (former USSR) (CIS)
Launch site: PLESETSK MISSILE AND SPACE COMPLEX (PKMTR)

Note: This is SATELLITE DEBRIS
aabbcc
Your satellite tracking list
Your tracking list is empty




NASA's NSSDC Master Catalog

Two Line Element Set (TLE):
1 33948U 93036FD  19347.79485803 +.00000050 +00000-0 +27575-4 0  9991
2 33948 074.0364 354.0276 0025798 246.8667 112.9766 14.33232904566189
Source of the keplerian elements: AFSPC